Weather History for KAQO - December, 2011

Change the Weather History Date:

Tuesday, December 13, 2011

  Actual Average (KBMQ) Record (KBMQ)
Temperature  
Mean Temperature 58 °F -  
Max Temperature 64 °F 58 °F 73 °F (2006)
Min Temperature 53 °F 36 °F 21 °F (1997)
Degree Days  
Heating Degree Days 6    
Growing Degree Days 8 (Base 50)    
Moisture  
Dew Point 58 °F    
Average Humidity 97    
Maximum Humidity 100    
Minimum Humidity 82    
Precipitation  
Precipitation 0.04 in - - ()
Sea Level Pressure  
Sea Level Pressure 30.18 in    
Wind  
Wind Speed 5 mph (ESE)    
Max Wind Speed 9 mph    
Max Gust Speed -    
Visibility 3 miles    
Events Fog , Rain    
Averages and records for this station are not official NWS values.
T = Trace of Precipitation, MM = Missing Value Source: NWS Daily Summary

Daily Weather History Graph

Daily Weather History Graph

Search for Another Location

Airport or City:

Trip Planner

Search our weather history database for the weather conditions in past years. The results will help you decide how hot, cold, wet, or windy it might be!

Date:

Astronomy

Dec. 13, 2011 Rise Set
Actual Time 7:23 AM CST 5:34 PM CST
Civil Twilight 6:56 AM CST 6:00 PM CST
Nautical Twilight 6:26 AM CST 6:30 PM CST
Astronomical Twilight 5:57 AM CST 7:00 PM CST
Moon 8:42 PM CST (12/13) 9:40 AM CST (12/13)
Length of Visible Light 11h 03m
Length of Day
10h 10m
Waning Gibbous, 90% of the Moon is Illuminated
Dec 13
Waning Gibbous
Dec 17
Last Quarter
Dec 24
New
Jan 1
First Quarter
Jan 9
Full

Hourly Weather History & Observations

Time (CST) Temp. Dew Point Humidity Pressure Visibility Wind Dir Wind Speed Gust Speed Precip Events Conditions
12:15 AM 53.6 °F 48.2 °F 82% 30.23 in 9.0 mi ESE 4.6 mph - N/A   Overcast
12:35 AM 53.6 °F 50.0 °F 88% 30.23 in 10.0 mi Calm Calm - N/A   Overcast
12:55 AM 53.6 °F 50.0 °F 88% 30.23 in 10.0 mi Calm Calm - N/A   Overcast
1:15 AM 53.6 °F 50.0 °F 88% 30.23 in 10.0 mi Calm Calm - N/A   Overcast
1:35 AM 55.4 °F 50.0 °F 82% 30.22 in 10.0 mi Calm Calm - N/A   Overcast
1:55 AM 55.4 °F 51.8 °F 88% 30.22 in 10.0 mi ESE 5.8 mph - N/A   Overcast
2:15 AM 55.4 °F 51.8 °F 88% 30.21 in 10.0 mi ESE 5.8 mph - N/A   Overcast
2:35 AM 55.4 °F 51.8 °F 88% 30.21 in 10.0 mi ESE 5.8 mph - N/A   Overcast
2:55 AM 55.4 °F 53.6 °F 94% 30.20 in 10.0 mi ESE 5.8 mph - N/A   Overcast
3:15 AM 55.4 °F 53.6 °F 94% 30.20 in 7.0 mi SE 9.2 mph - N/A   Overcast
3:35 AM 55.4 °F 53.6 °F 94% 30.19 in 5.0 mi ESE 8.1 mph - N/A   Overcast
3:55 AM 55.4 °F 55.4 °F 100% 30.20 in 3.0 mi ESE 6.9 mph - N/A   Overcast
4:15 AM 55.4 °F 55.4 °F 100% 30.19 in 2.0 mi ESE 8.1 mph - N/A   Overcast
4:35 AM 55.4 °F 55.4 °F 100% 30.19 in 1.8 mi Calm Calm - N/A   Overcast
4:55 AM 57.2 °F 55.4 °F 94% 30.19 in 1.2 mi ESE 6.9 mph - N/A   Overcast
5:15 AM 57.2 °F 55.4 °F 94% 30.19 in 0.8 mi ESE 6.9 mph - N/A   Overcast
5:35 AM 57.2 °F 55.4 °F 94% 30.19 in 0.8 mi ESE 3.5 mph - N/A   Overcast
5:55 AM 57.2 °F 55.4 °F 94% 30.19 in 0.5 mi ESE 5.8 mph - N/A Fog Fog
6:15 AM 57.2 °F 55.4 °F 94% 30.20 in 0.8 mi ESE 5.8 mph - N/A   Overcast
6:35 AM 57.2 °F 57.2 °F 100% 30.20 in 0.5 mi ESE 3.5 mph - N/A Fog Fog
6:55 AM 57.2 °F 57.2 °F 100% 30.20 in 0.8 mi ESE 8.1 mph - N/A   Overcast
7:15 AM 57.2 °F 57.2 °F 100% 30.21 in 0.5 mi SE 3.5 mph - N/A Fog Fog
7:35 AM 57.2 °F 57.2 °F 100% 30.22 in 0.5 mi ESE 6.9 mph - N/A Fog Fog
7:55 AM 57.2 °F 57.2 °F 100% 30.23 in 0.5 mi SE 4.6 mph - N/A Fog Fog
8:15 AM 57.2 °F 57.2 °F 100% 30.23 in 0.2 mi East 4.6 mph - N/A Fog Fog
8:35 AM 57.2 °F 57.2 °F 100% 30.23 in 0.5 mi SE 6.9 mph - 0.03 in Rain Heavy Rain
8:55 AM - - N/A% - - North - - N/A   Unknown
9:15 AM 57.2 °F 57.2 °F 100% 30.23 in 0.2 mi SE 8.1 mph - N/A Rain Light Rain
9:35 AM 57.2 °F 57.2 °F 100% 30.24 in 0.2 mi SE 6.9 mph - N/A Fog Fog
9:55 AM 59.0 °F 57.2 °F 94% 30.24 in 0.2 mi SE 8.1 mph - N/A Rain Light Rain
10:15 AM 59.0 °F 59.0 °F 100% 30.24 in 0.2 mi ESE 5.8 mph - N/A Fog Fog
10:35 AM 59.0 °F 59.0 °F 100% 30.24 in 0.2 mi SE 8.1 mph - N/A Fog Fog
10:55 AM 59.0 °F 59.0 °F 100% 30.24 in 0.2 mi SE 6.9 mph - N/A Fog Fog
11:15 AM 59.0 °F 59.0 °F 100% 30.23 in 0.2 mi SE 8.1 mph - N/A Fog Fog
11:35 AM 60.8 °F 60.8 °F 100% 30.22 in 0.5 mi SE 5.8 mph - N/A Fog Fog
11:55 AM 60.8 °F 60.8 °F 100% 30.21 in 0.2 mi SE 6.9 mph - N/A Fog Fog
12:15 PM 60.8 °F 60.8 °F 100% 30.20 in 0.2 mi ESE 3.5 mph - N/A Fog Fog
12:35 PM 60.8 °F 60.8 °F 100% 30.19 in 0.2 mi ESE 6.9 mph - N/A Fog Fog
12:55 PM 60.8 °F 60.8 °F 100% 30.18 in 0.2 mi ESE 6.9 mph - N/A Fog Fog
1:15 PM 60.8 °F 60.8 °F 100% 30.17 in 0.2 mi ESE 6.9 mph - N/A Fog Fog
1:35 PM 60.8 °F 60.8 °F 100% 30.16 in 0.2 mi ESE 5.8 mph - N/A Fog Fog
1:55 PM 60.8 °F 60.8 °F 100% 30.15 in 0.2 mi SE 6.9 mph - N/A Fog Fog
2:15 PM 60.8 °F 60.8 °F 100% 30.14 in 0.2 mi ESE 6.9 mph - N/A Fog Fog
2:35 PM 62.6 °F 62.6 °F 100% 30.13 in 0.2 mi ESE 8.1 mph - 0.01 in Fog Fog
2:55 PM 62.6 °F 62.6 °F 100% 30.14 in 0.5 mi ESE 8.1 mph - 0.01 in Fog Fog
3:15 PM 62.6 °F 62.6 °F 100% 30.13 in 0.2 mi ESE 6.9 mph - N/A Fog Fog
3:35 PM 62.6 °F 62.6 °F 100% 30.13 in 1.0 mi ESE 5.8 mph - N/A   Overcast
3:55 PM 62.6 °F 62.6 °F 100% 30.12 in 1.5 mi ESE 5.8 mph - N/A   Overcast
4:15 PM 64.4 °F 64.4 °F 100% 30.12 in 1.5 mi ESE 5.8 mph - N/A   Overcast
4:35 PM 64.4 °F 64.4 °F 100% 30.12 in 1.8 mi ESE 5.8 mph - N/A   Overcast
4:55 PM 64.4 °F 64.4 °F 100% 30.12 in 1.8 mi ESE 4.6 mph - N/A   Overcast
5:35 PM 64.4 °F 64.4 °F 100% 30.12 in 2.5 mi ESE 6.9 mph - N/A   Overcast
5:55 PM 64.4 °F 64.4 °F 100% 30.11 in 3.0 mi ESE 6.9 mph - N/A   Overcast
6:15 PM 64.4 °F 64.4 °F 100% 30.10 in 2.5 mi ESE 5.8 mph - N/A   Overcast
6:35 PM 64.4 °F 64.4 °F 100% 30.11 in 2.5 mi ESE 5.8 mph - N/A   Overcast
6:55 PM 64.4 °F 64.4 °F 100% 30.10 in 2.0 mi SE 8.1 mph - N/A   Overcast
7:15 PM 64.4 °F 64.4 °F 100% 30.10 in 3.0 mi SE 9.2 mph - N/A   Overcast
7:55 PM 64.4 °F 64.4 °F 100% 30.10 in 3.0 mi SE 6.9 mph - N/A   Overcast
8:15 PM 64.4 °F 64.4 °F 100% 30.09 in 3.0 mi SE 9.2 mph - N/A   Overcast
8:35 PM 64.4 °F 64.4 °F 100% 30.09 in 5.0 mi SSE 9.2 mph - N/A   Mostly Cloudy
8:55 PM 64.4 °F 64.4 °F 100% 30.10 in 5.0 mi SSE 6.9 mph - N/A   Mostly Cloudy
9:15 PM 66.2 °F 66.2 °F 100% 30.10 in 7.0 mi SSE 3.5 mph - N/A   Overcast
9:35 PM 66.2 °F 66.2 °F 100% 30.10 in 10.0 mi SSE 8.1 mph - N/A   Overcast
9:55 PM 68.0 °F 66.2 °F 94% 30.09 in 10.0 mi SSE 9.2 mph 18.4 mph N/A   Overcast
10:15 PM 68.0 °F 64.4 °F 88% 30.10 in 10.0 mi SSE 9.2 mph 16.1 mph N/A   Overcast
10:35 PM 68.0 °F 64.4 °F 88% 30.10 in 10.0 mi SSE 10.4 mph - N/A   Overcast
10:55 PM 69.8 °F 64.4 °F 83% 30.10 in 10.0 mi SSE 8.1 mph 16.1 mph N/A   Overcast
11:15 PM 69.8 °F 64.4 °F 83% 30.10 in 10.0 mi SSE 11.5 mph - N/A   Overcast
11:35 PM 69.8 °F 64.4 °F 83% 30.09 in 10.0 mi SSE 9.2 mph 16.1 mph N/A   Overcast
11:55 PM 68.0 °F 64.4 °F 88% 30.08 in 10.0 mi SSE 9.2 mph 16.1 mph N/A   Overcast